EW1196 Weather Reports


time (UTC)temp
C
wind
direction
speed
KPH
gust
KPH
rain 1hr
cm
rain 24hr
cm
rain mn
cm
humidity
%
barometer
mb
20260504081504 11 195 3.2 11.3 0.00 0.00 0.00 69 1008.9
20260504081004 11 224 4.8 12.9 0.00 0.00 0.00 70 1008.9
20260504080504 11 190 3.2 9.7 0.00 0.00 0.00 69 1009.0
20260504050004 11 189 3.2 11.3 0.00 0.00 0.00 68 1010.9
20260504045504 11 232 3.2 11.3 0.00 0.00 0.00 68 1010.9
20260504045004 11 182 3.2 11.3 0.00 0.00 0.00 68 1010.9
20260504043004 11 203 1.6 8.0 0.00 0.00 0.00 68 1011.0
20260504042504 11 209 3.2 4.8 0.00 0.00 0.00 68 1011.1
20260504042004 11 217 3.2 4.8 0.00 0.00 0.00 68 1011.1
20260504041503 11 230 3.2 9.7 0.00 0.00 0.00 68 1011.2
20260504041005 11 227 3.2 8.0 0.00 0.00 0.00 69 1011.3
20260504040504 11 203 4.8 9.7 0.00 0.00 0.00 69 1011.3
20260504040004 11 198 1.6 4.8 0.00 0.00 0.00 69 1011.3
20260504035504 11 184 3.2 8.0 0.00 0.00 0.00 70 1011.4
20260504035004 10 169 0.0 4.8 0.00 0.00 0.00 70 1011.4
20260504034504 10 201 0.0 4.8 0.00 0.00 0.00 70 1011.4
20260504034004 10 204 0.0 4.8 0.00 0.00 0.00 71 1011.5
20260504033504 10 207 1.6 4.8 0.00 0.00 0.00 71 1011.6
20260504033004 10 221 0.0 4.8 0.00 0.00 0.00 71 1011.6
20260504032004 10 163 1.6 8.0 0.00 0.00 0.00 71 1011.7
20260504031504 10 211 0.0 3.2 0.00 0.00 0.00 72 1011.8
20260504031004 10 211 0.0 1.6 0.00 0.00 0.00 71 1011.8
20260504030504 10 211 0.0 1.6 0.00 0.00 0.00 71 1011.7
20260504030004 10 211 0.0 4.8 0.00 0.00 0.00 70 1011.8
20260504025004 10 200 1.6 4.8 0.00 0.00 0.00 70 1011.9
20260504024504 11 181 0.0 3.2 0.00 0.00 0.00 70 1011.9
20260504024005 11 181 1.6 3.2 0.00 0.00 0.00 69 1012.0
20260504023504 11 181 0.0 1.6 0.00 0.00 0.00 69 1011.9
20260504023004 11 181 0.0 0.0 0.00 0.00 0.00 68 1011.9
20260504022504 11 181 1.6 3.2 0.00 0.00 0.00 68 1011.9
20260504022004 11 184 1.6 3.2 0.00 0.00 0.00 68 1011.9
20260504021504 11 184 0.0 4.8 0.00 0.00 0.00 66 1011.9
20260504020504 11 182 1.6 8.0 0.00 0.00 0.00 66 1011.8
20260504020004 11 195 1.6 4.8 0.00 0.00 0.00 65 1011.8
20260504015004 12 215 4.8 9.7 0.00 0.00 0.00 63 1011.8
20260504014504 12 215 1.6 4.8 0.00 0.00 0.00 64 1011.9
20260504014004 12 182 1.6 8.0 0.00 0.00 0.00 64 1011.8
20260504013504 12 179 4.8 8.0 0.00 0.00 0.00 64 1011.8
20260504013004 12 216 3.2 11.3 0.00 0.00 0.00 64 1011.7
20260504012504 12 209 3.2 11.3 0.00 0.00 0.00 65 1011.7
20260504012004 12 192 3.2 4.8 0.00 0.00 0.00 65 1011.7
20260504011504 12 209 4.8 9.7 0.00 0.00 0.00 66 1011.7
20260504011004 12 223 3.2 8.0 0.00 0.00 0.00 67 1011.7
20260504010504 12 203 3.2 4.8 0.00 0.00 0.00 66 1011.6
20260504010004 12 227 4.8 12.9 0.00 0.00 0.00 65 1011.6
20260504005504 12 218 4.8 9.7 0.00 0.00 0.00 65 1011.6
20260504005004 12 201 3.2 9.7 0.00 0.00 0.00 62 1011.5
20260504004504 13 156 8.0 14.5 0.00 0.00 0.00 57 1011.6
20260504004004 13 194 4.8 19.3 0.00 0.00 0.00 55 1011.7
20260504003504 13 201 4.8 8.0 0.00 0.00 0.00 54 1011.8
20260504003004 13 198 8.0 16.1 0.00 0.00 0.00 52 1011.7
20260504002504 13 234 4.8 12.9 0.00 0.00 0.00 52 1011.7
20260504002004 13 190 6.4 11.3 0.00 0.00 0.00 52 1011.6
20260504001504 13 201 6.4 12.9 0.00 0.00 0.00 51 1011.5
20260504001004 14 222 4.8 19.3 0.00 0.00 0.00 50 1011.6
20260504000504 14 177 3.2 16.1 0.00 0.00 0.00 50 1011.7
20260504000004 14 164 1.6 9.7 0.00 0.00 0.00 49 1011.9
20260503235504 14 197 8.0 19.3 0.00 0.00 0.00 49 1011.9
20260503235004 14 236 8.0 16.1 0.00 0.00 0.00 48 1012.0
20260503234504 14 191 4.8 12.9 0.00 0.00 0.00 49 1011.9
20260503234004 14 203 4.8 11.3 0.00 0.00 0.00 49 1011.9
20260503233504 14 216 3.2 8.0 0.00 0.00 0.00 51 1011.8
20260503233004 14 194 1.6 4.8 0.00 0.00 0.00 51 1011.7
20260503232004 14 203 6.4 14.5 0.00 0.00 0.00 47 1011.8
20260503231503 15 217 3.2 12.9 0.00 0.00 0.00 48 1011.8
20260503231004 15 199 3.2 8.0 0.00 0.00 0.00 47 1011.8
20260503230004 15 260 4.8 12.9 0.00 0.00 0.00 47 1012.0
20260503225504 15 188 4.8 25.7 0.00 0.00 0.00 47 1012.1
20260503225004 15 186 4.8 19.3 0.00 0.00 0.00 45 1012.2
20260503224504 15 221 4.8 16.1 0.00 0.00 0.00 46 1012.2
20260503224004 15 168 3.2 20.9 0.00 0.00 0.00 45 1012.4
20260503223004 15 177 4.8 16.1 0.00 0.00 0.00 44 1012.5
20260503222504 15 231 9.7 20.9 0.00 0.00 0.00 42 1012.7
20260503222004 15 187 8.0 20.9 0.00 0.00 0.00 43 1012.7
20260503221004 16 178 9.7 20.9 0.00 0.00 0.00 42 1012.9
20260503220504 16 237 9.7 24.1 0.00 0.00 0.00 43 1012.9
20260503215504 16 225 11.3 20.9 0.00 0.00 0.00 41 1012.9
20260503215004 16 186 16.1 25.7 0.00 0.00 0.00 40 1013.2
20260503214504 16 205 9.7 24.1 0.00 0.00 0.00 42 1013.3
20260503214004 16 200 4.8 12.9 0.00 0.00 0.00 44 1013.3
20260503213504 16 162 9.7 16.1 0.00 0.00 0.00 42 1013.3
20260503213004 16 184 8.0 20.9 0.00 0.00 0.00 41 1013.5
20260503212504 16 206 11.3 29.0 0.00 0.00 0.00 40 1013.5
20260503211504 16 224 14.5 27.4 0.00 0.00 0.00 41 1013.5
20260503210004 15 189 11.3 25.7 0.00 0.00 0.00 43 1013.9
20260503205004 15 208 8.0 16.1 0.00 0.00 0.00 44 1013.9
20260503204504 15 226 6.4 16.1 0.00 0.00 0.00 42 1014.1
20260503204004 15 258 8.0 19.3 0.00 0.00 0.00 41 1014.3
20260503203504 15 178 6.4 14.5 0.00 0.00 0.00 43 1014.7
20260503203004 15 195 8.0 14.5 0.00 0.00 0.00 44 1014.6
20260503202504 15 232 8.0 16.1 0.00 0.00 0.00 43 1014.7
20260503202004 15 214 4.8 11.3 0.00 0.00 0.00 44 1014.6
20260503201504 15 220 8.0 14.5 0.00 0.00 0.00 42 1014.6
20260503201004 15 261 8.0 19.3 0.00 0.00 0.00 43 1014.5
20260503200504 15 218 9.7 20.9 0.00 0.00 0.00 43 1014.5
20260503200004 15 220 11.3 19.3 0.00 0.00 0.00 42 1014.5
20260503195504 15 245 8.0 19.3 0.00 0.00 0.00 41 1014.7
20260503194504 15 224 4.8 20.9 0.00 0.00 0.00 44 1014.9
20260503193504 15 211 9.7 25.7 0.00 0.00 0.00 42 1015.0
20260503193004 14 246 9.7 25.7 0.00 0.00 0.00 45 1015.2
20260503192504 13 180 8.0 20.9 0.00 0.00 0.00 44 1015.4
20260503192004 13 198 8.0 20.9 0.00 0.00 0.00 41 1015.4
20260503191004 13 233 8.0 19.3 0.00 0.00 0.00 42 1015.9
20260503190504 13 253 12.9 22.5 0.00 0.00 0.00 44 1015.9
20260503190004 14 219 8.0 22.5 0.00 0.00 0.00 43 1016.0
20260503185504 14 205 9.7 22.5 0.00 0.00 0.00 42 1016.1
20260503185004 14 254 4.8 14.5 0.00 0.00 0.00 45 1016.2
20260503184504 14 212 9.7 19.3 0.00 0.00 0.00 44 1016.2
20260503184004 14 212 11.3 20.9 0.00 0.00 0.00 41 1016.2
20260503183504 14 194 8.0 20.9 0.00 0.00 0.00 44 1016.3
20260503182504 14 210 11.3 19.3 0.00 0.00 0.00 42 1016.4
20260503182005 14 228 8.0 20.9 0.00 0.00 0.00 45 1016.6
20260503181004 14 264 8.0 16.1 0.00 0.00 0.00 44 1016.7
20260503180504 14 208 9.7 20.9 0.00 0.00 0.00 42 1016.7
20260503180004 14 174 9.7 20.9 0.00 0.00 0.00 43 1016.8
20260503175504 14 224 14.5 25.7 0.00 0.00 0.00 41 1016.8
20260503174504 15 215 8.0 20.9 0.00 0.00 0.00 48 1016.8
20260503174004 14 215 4.8 12.9 0.00 0.00 0.00 49 1016.9
20260503173504 14 199 8.0 19.3 0.00 0.00 0.00 45 1016.9
20260503173004 13 204 11.3 27.4 0.00 0.00 0.00 43 1017.0
20260503172504 13 189 9.7 20.9 0.00 0.00 0.00 42 1017.1
20260503171504 13 160 9.7 22.5 0.00 0.00 0.00 44 1017.2
20260503171003 13 260 9.7 20.9 0.00 0.00 0.00 43 1017.3
20260503151004 11 223 12.9 22.5 0.00 0.00 0.00 50 1019.0
20260503150503 12 202 9.7 27.4 0.00 0.00 0.00 51 1018.9
20260503131004 7 226 8.0 16.1 0.00 0.00 0.00 62 1019.0
20260503130504 7 215 11.3 19.3 0.00 0.00 0.00 62 1019.0
20260503110503 3 218 1.6 8.0 0.00 0.00 0.00 76 1018.3
20260503090504 2 207 0.0 3.2 0.00 0.00 0.00 83 1017.9